Carlyle Lake Weather Center

Moon Phase Calendar



Carlyle Lake Water Level
Online Cameras

 


      

Current Conditions in Carlyle
8/8/2022 4:30:55 AM

76°F
Feels Like 77
Clouds
Humidity
92%
Pressure
30"
Wind
6.8 mph (SW)
Dew Point
73°F
UV Index
0/10 (Low)
Visibility
6 mi

Hourly Forecast

Date & Time Mon, Aug 8
4:00 AM
Mon, Aug 8
5:00 AM
Mon, Aug 8
6:00 AM
Mon, Aug 8
7:00 AM
Mon, Aug 8
8:00 AM
Mon, Aug 8
9:00 AM
Mon, Aug 8
10:00 AM
Mon, Aug 8
11:00 AM
Mon, Aug 8
12:00 PM
Mon, Aug 8
1:00 PM
Mon, Aug 8
2:00 PM
Mon, Aug 8
3:00 PM
Mon, Aug 8
4:00 PM
Mon, Aug 8
5:00 PM
Mon, Aug 8
6:00 PM
Mon, Aug 8
7:00 PM
Mon, Aug 8
8:00 PM
Mon, Aug 8
9:00 PM
Mon, Aug 8
10:00 PM
Mon, Aug 8
11:00 PM
Tue, Aug 9
12:00 AM
Tue, Aug 9
1:00 AM
Tue, Aug 9
2:00 AM
Tue, Aug 9
3:00 AM
Tue, Aug 9
4:00 AM
Tue, Aug 9
5:00 AM
Tue, Aug 9
6:00 AM
Tue, Aug 9
7:00 AM
Tue, Aug 9
8:00 AM
Tue, Aug 9
9:00 AM
Tue, Aug 9
10:00 AM
Tue, Aug 9
11:00 AM
Tue, Aug 9
12:00 PM
Tue, Aug 9
1:00 PM
Tue, Aug 9
2:00 PM
Tue, Aug 9
3:00 PM
Tue, Aug 9
4:00 PM
Tue, Aug 9
5:00 PM
Tue, Aug 9
6:00 PM
Tue, Aug 9
7:00 PM
Tue, Aug 9
8:00 PM
Tue, Aug 9
9:00 PM
Tue, Aug 9
10:00 PM
Tue, Aug 9
11:00 PM
Wed, Aug 10
12:00 AM
Wed, Aug 10
1:00 AM
Wed, Aug 10
2:00 AM
Wed, Aug 10
3:00 AM
Condition
Clouds

Clouds

Clouds

Clouds

Clouds

Clouds

Clear

Clear

Clear

Clouds

Rain

Clouds

Rain

Rain

Rain

Rain

Rain

Rain

Clouds

Rain

Clouds

Rain

Rain

Rain

Rain

Rain

Rain

Rain

Rain

Rain

Clouds

Clouds

Clouds

Clouds

Clouds

Clouds

Rain

Clouds

Clouds

Clouds

Clouds

Clouds

Clouds

Clouds

Clouds

Clouds

Clouds

Clouds
Temperature 75°F76°F75°F75°F76°F79°F82°F85°F87°F87°F87°F89°F89°F89°F83°F80°F79°F78°F78°F76°F75°F74°F73°F72°F71°F70°F70°F70°F72°F75°F77°F78°F78°F78°F79°F80°F81°F81°F80°F78°F76°F74°F73°F72°F71°F71°F70°F69°F
Feels Like 77°F77°F76°F76°F78°F80°F89°F93°F97°F98°F100°F101°F102°F101°F91°F86°F79°F80°F79°F78°F77°F75°F74°F73°F72°F72°F71°F72°F74°F76°F78°F79°F79°F80°F79°F80°F85°F86°F80°F80°F77°F75°F74°F73°F72°F72°F71°F70°F
Cloudiness 43%41%39%37%18%12%6%6%10%22%99%93%86%84%86%88%91%89%78%75%77%75%78%85%90%92%94%95%100%99%99%100%100%100%100%100%97%95%95%96%100%81%70%62%53%46%19%12%
Visibility 6 mi6 mi6 mi6 mi6 mi6 mi6 mi6 mi6 mi6 mi6 mi6 mi6 mi6 mi6 mi6 mi6 mi6 mi6 mi6 mi6 mi6 mi6 mi6 mi6 mi6 mi6 mi6 mi6 mi6 mi6 mi6 mi6 mi6 mi6 mi6 mi6 mi6 mi6 mi6 mi6 mi6 mi6 mi6 mi6 mi6 mi6 mi6 mi
Precipitation 1%0%0%0%0%0%0%0%0%0%24%8%22%53%76%85%83%75%83%91%79%86%68%80%94%98%97%97%85%78%75%68%64%60%6%9%21%21%17%25%17%25%25%21%17%17%21%21%
Humidity 93%92%93%93%90%84%77%73%69%71%72%71%69%72%82%85%85%85%85%87%90%95%97%97%98%98%98%98%96%92%88%85%86%84%82%81%79%78%82%86%87%91%93%93%94%94%95%95%
Dew Point 73°F73°F73°F72°F73°F73°F74°F75°F75°F76°F77°F78°F78°F78°F77°F76°F74°F73°F73°F72°F72°F72°F72°F71°F70°F70°F69°F70°F71°F72°F73°F73°F73°F73°F73°F73°F73°F73°F74°F74°F72°F71°F70°F70°F69°F69°F68°F67°F
Pressure 30"30"30"30"30"30"30"30"29.97"29.97"29.94"29.94"29.91"29.91"29.91"29.91"29.91"29.94"29.94"29.94"29.94"29.97"29.97"29.97"30"29.97"30"30.03"30.03"30.03"30.03"30.06"30.03"30.03"30.03"30"30"30"30"30"30"30.03"30.03"30.03"30.03"30.06"30.06"30.06"
Wind Speed 6.8 mph6.8 mph7 mph7 mph7.8 mph9.4 mph9.9 mph10.7 mph11.3 mph9 mph6.9 mph5.4 mph4.9 mph2.8 mph6.5 mph3.2 mph5.3 mph4.2 mph3.5 mph2.4 mph4.1 mph5.6 mph6 mph7.1 mph6.6 mph5.8 mph6 mph5.3 mph6.5 mph5.9 mph5.3 mph5.4 mph5.8 mph6.2 mph6.3 mph6.5 mph6 mph5.9 mph6.6 mph5 mph5.9 mph6.3 mph5.3 mph5.3 mph5.8 mph5.6 mph6.3 mph5.8 mph
Wind
Direction
213°
SSW
216°
SW
213°
SSW
214°
SW
216°
SW
227°
SW
233°
SW
234°
SW
232°
SW
233°
SW
227°
SW
214°
SW
214°
SW
285°
WNW
329°
NNW
323°
NW
289°
WNW
293°
WNW
285°
WNW
293°
WNW

N
24°
NNE
41°
NE
56°
NE
56°
NE
43°
NE
42°
NE
40°
NE
38°
NE
55°
NE
46°
NE
49°
NE
40°
NE
32°
NNE
25°
NNE
21°
NNE
27°
NNE
31°
NNE
46°
NE
62°
ENE
75°
ENE
81°
E
73°
ENE
63°
ENE
57°
ENE
56°
NE
54°
NE
57°
ENE

Daily Forecast

Date High Low Precip. Humidity
Today
Aug 8

Rain
89 °F
74 °F
91%
71%
Tuesday
Aug 9

Rain
81 °F
70 °F
98%
84%
Wednesday
Aug 10

Clouds
82 °F
67 °F
25%
70%
Thursday
Aug 11

Clear
83 °F
64 °F
0%
60%
Friday
Aug 12

Clouds
78 °F
63 °F
3%
63%
Saturday
Aug 13

Clouds
77 °F
60 °F
0%
61%
Sunday
Aug 14

Clouds
75 °F
64 °F
1%
70%
Monday
Aug 15

Clouds
80 °F
62 °F
22%
59%
Tuesday
Aug 16

Rain
81 °F
64 °F
81%
70%
Wednesday
Aug 17

Rain
83 °F
67 °F
37%
69%
Thursday
Aug 18

Rain
84 °F
67 °F
99%
64%
Friday
Aug 19

Rain
84 °F
67 °F
69%
66%
Saturday
Aug 20

Rain
79 °F
68 °F
50%
79%
Sunday
Aug 21

Clear
86 °F
67 °F
25%
60%
Monday
Aug 22

Rain
87 °F
69 °F
100%
66%
Tuesday
Aug 23

Rain
85 °F
69 °F
100%
66%

Temperature 8-14 Day Outlook



Precipitation 8-14 Day Outlook




Quick Links
Carlyle Lake News
Carlyle Lake Photos
Carlyle Lake Videos




About Us
Contact Us
Site Map
Search Site
Advertise With Us
   
Carlyle.USLakes.info
THE CARLYLE LAKE WEBSITE

Copyright 2022, Lakes Online
Privacy    |    Legal